Location: Bourg-d�Oueil
(42.8588°N, 0.4991°E)
Time: 19:06:17
(UTC+00:00)

USA 215 - Pass Details

Date: 16 June 2021
Orbit: 1100 x 1107 km, 123.0° (Epoch: 22 June)

Event Time Altitude Azimuth Distance (km) Brightness Sun altitude
Rises 21:37:40 0° 51° (NE) 3,922 6.2 -16.2°
Reaches altitude 10° 21:40:16 10° 57° (ENE) 2,961 5.5 -16.5°
Maximum altitude 21:46:34 50° 132° (SE) 1,378 3.4 -17.1°
Drops below altitude 10° 21:52:51 10° 206° (SSW) 2,950 5.2 -17.7°
Sets 21:55:25 0° 212° (SSW) 3,905 5.9 -17.9°
